Location: Gallinara
(44.0333°N, 8.2333°E)
Time: 16:41:33
(UTC+00:00)

Meteor 1-27 Rocket - Pass Details

Date: 25 September 2020
Orbit: 830 x 910 km, 81.3° (Epoch: 29 October)

Event Time Altitude Azimuth Distance (km) Brightness Sun altitude
Exits shadow 03:04:56 21° 179° (S) 1,918 5.3 -24.1°
Maximum altitude 03:09:00 75° 98° (E) 943 4.0 -23.4°
Drops below altitude 10° 03:14:54 10° 14° (NNE) 2,583 6.7 -22.5°
Sets 03:17:21 0° 13° (NNE) 3,518 7.4 -22.0°
